Find Starlink 3576

NORAD ID: 51883 Int'l Des: 2022-022 Owner: SPXS Country: US Constellation: starlink operational
LEOCIRCULAR

实时位置

正在加载3D地球...

关于 Starlink 3576

正在加载描述...

即将过境

Passes for default location (London). Set your location on the main map for personalized predictions.

高度历史

Loading altitude history...

两行轨道根数

1 51883U 22022AH 26127.20837610 .00000090 00000-0 23769-4 0 9998
2 51883 53.2171 96.6010 0001242 89.0259 271.0875 15.08832511232078
Epoch: May 7, 2026 • Age: 11 hours

当前状态

高度 540.2 km
速度 7.59 km/s
星下点 3.45°N, 10.65°W
发射日期 Mar 3, 2022
运行时间 4.1 years
类型 internet

技术详情

分类 Payload
质量 297.00 kg
干质量 275.00 kg
总质量 297.00 kg
长度 0.20 m
直径 2.80 m
跨度 9.00 m
形状 Box + pan
制造商 SPXS
平台类型 Starlink
阶段状态 In Orbit
所有者/国家 SPXS/US

Most Searched